Livermore, CA

4:57 PM PDT on August 22, 2017 (GMT -0700)
Livermore Municipal

Weather History for KLVK - July, 2013

Change the Weather History Date:

Thursday, July 11, 2013

  Actual Average Record
Temperature  
Mean Temperature 69 °F 72 °F  
Max Temperature 82 °F 88 °F 111 °F (1961)
Min Temperature 55 °F 57 °F 46 °F (1935)
Degree Days  
Heating Degree Days 0 0  
Month to date heating degree days 0 0  
Since 1 June heating degree days 5 32  
Since 1 July heating degree days 0 0  
Cooling Degree Days 4 7  
Month to date cooling degree days 130 74  
Year to date cooling degree days 421 237  
Since 1 June cooling degree days 320 184  
Growing Degree Days 18 (Base 50)    
Moisture  
Dew Point 52 °F    
Average Humidity 64    
Maximum Humidity 93    
Minimum Humidity 34    
Precipitation  
Precipitation 0.00 in 0.00 in 0.00 in (2017)
Month to date precipitation 0.00 0.00  
Year to date precipitation 2.12 9.90  
Since 1 July precipitation 0.00  
Sea Level Pressure  
Sea Level Pressure 29.90 in    
Wind  
Wind Speed 11 mph (WNW)    
Max Wind Speed 20 mph    
Max Gust Speed 25 mph    
Visibility 10 miles    
Events      
T = Trace of Precipitation, MM = Missing Value Source: NWS Daily Summary

Daily Weather History Graph

Daily Weather History Graph

Search for Another Location

Airport or City:

Trip Planner

Search our weather history database for the weather conditions in past years. The results will help you decide how hot, cold, wet, or windy it might be!

Date:

Astronomy

Jul. 11, 2013 Rise Set
Actual Time 5:55 AM PDT 8:30 PM PDT
Civil Twilight 5:24 AM PDT 9:00 PM PDT
Nautical Twilight 4:46 AM PDT 9:38 PM PDT
Astronomical Twilight 4:03 AM PDT 10:21 PM PDT
Moon 9:14 AM PDT (7/11) 10:18 PM PDT (7/11)
Length of Visible Light 15h 36m
Length of Day
14h 35m
Waxing Crescent, 11% of the Moon is Illuminated
Jul 11
Waxing Crescent
Jul 15
First Quarter
Jul 22
Full
Jul 29
Last Quarter
Aug 6
New

Hourly Weather History & Observations

Time (PDT) Temp. Dew Point Humidity Pressure Visibility Wind Dir Wind Speed Gust Speed Precip Events Conditions
12:53 AM 55.9 °F 52.0 °F 87% 29.92 in 10.0 mi WNW 11.5 mph - N/A   Clear
1:53 AM 55.0 °F 52.0 °F 89% 29.91 in 10.0 mi WNW 10.4 mph - N/A   Clear
2:53 AM 55.0 °F 53.1 °F 93% 29.92 in 9.0 mi WNW 9.2 mph - N/A   Scattered Clouds
3:03 AM 55.4 °F 53.6 °F 94% 29.92 in 9.0 mi WNW 8.1 mph - N/A   Mostly Cloudy
3:32 AM 55.4 °F 53.6 °F 94% 29.92 in 10.0 mi WNW 5.8 mph - N/A   Overcast
3:53 AM 55.9 °F 53.1 °F 90% 29.92 in 10.0 mi WNW 6.9 mph - N/A   Overcast
4:53 AM 55.9 °F 53.1 °F 90% 29.91 in 10.0 mi West 3.5 mph - N/A   Overcast
5:53 AM 55.9 °F 52.0 °F 87% 29.92 in 10.0 mi NW 6.9 mph - N/A   Overcast
6:53 AM 57.0 °F 52.0 °F 83% 29.93 in 10.0 mi WNW 8.1 mph - N/A   Overcast
7:53 AM 57.9 °F 52.0 °F 81% 29.93 in 10.0 mi West 3.5 mph - N/A   Overcast
8:31 AM 59.0 °F 51.8 °F 77% 29.94 in 10.0 mi Calm Calm - N/A   Scattered Clouds
8:53 AM 62.1 °F 52.0 °F 70% 29.94 in 10.0 mi West 11.5 mph - N/A   Partly Cloudy
9:53 AM 64.0 °F 51.1 °F 63% 29.93 in 10.0 mi WNW 8.1 mph - N/A   Clear
10:53 AM 68.0 °F 51.1 °F 55% 29.92 in 10.0 mi WNW 8.1 mph - N/A   Clear
11:53 AM 73.0 °F 51.1 °F 46% 29.91 in 10.0 mi WNW 9.2 mph - N/A   Clear
12:53 PM 77.0 °F 52.0 °F 42% 29.90 in 10.0 mi WNW 11.5 mph - N/A   Clear
1:53 PM 82.0 °F 52.0 °F 35% 29.88 in 10.0 mi WNW 13.8 mph - N/A   Clear
2:53 PM 80.1 °F 52.0 °F 38% 29.87 in 10.0 mi WNW 18.4 mph 25.3 mph N/A   Clear
3:53 PM 80.1 °F 52.0 °F 38% 29.86 in 10.0 mi NW 17.3 mph - N/A   Clear
4:53 PM 78.1 °F 52.0 °F 40% 29.85 in 10.0 mi WNW 16.1 mph - N/A   Clear
5:53 PM 73.0 °F 51.1 °F 46% 29.85 in 10.0 mi WNW 16.1 mph - N/A   Clear
6:53 PM 70.0 °F 51.1 °F 51% 29.86 in 10.0 mi NW 16.1 mph - N/A   Clear
7:53 PM 64.9 °F 51.1 °F 61% 29.86 in 10.0 mi WNW 15.0 mph - N/A   Clear
8:53 PM 60.1 °F 51.1 °F 72% 29.88 in 10.0 mi WNW 11.5 mph - N/A   Clear
9:53 PM 57.9 °F 51.1 °F 78% 29.90 in 10.0 mi WNW 11.5 mph - N/A   Clear
10:53 PM 57.0 °F 52.0 °F 83% 29.90 in 10.0 mi WNW 12.7 mph - N/A   Clear
11:53 PM 57.0 °F 52.0 °F 83% 29.91 in 10.0 mi WNW 9.2 mph - N/A   Clear